This is the latest recevied weather packets stored in our database for station/object BARLOW-WX. If no packets are shown the sender has not sent any weather packets the latest 10 day(s).
| Time | Temp. | Humidity | Pressure | Rain* | Wind** | Luminosity | Snow |
|---|---|---|---|---|---|---|---|
| 1777597299 | 6.67° C | 66% | 987.8 hPa | 0 mm | - | - | - |
| 1777596376 | 6.67° C | 56% | 987.2 hPa | 0 mm | - | - | - |
| 1777595489 | 6.67° C | 56% | 988.4 hPa | 0 mm | - | - | - |
| 1777594577 | 7.22° C | 56% | 988.4 hPa | 0 mm | - | - | - |
| 1777593714 | 7.22° C | 56% | 988.4 hPa | 0 mm | - | - | - |
| 1777592781 | 7.78° C | 49% | 987.9 hPa | 0 mm | - | - | - |
| 1777591894 | 7.78° C | 48% | 988 hPa | 0 mm | - | - | - |
| 1777590979 | 7.78° C | 48% | 988 hPa | 0 mm | - | - | - |
| 1777590098 | 8.33° C | 48% | 988 hPa | 0 mm | - | - | - |
| 1777589179 | 8.89° C | 44% | 988.5 hPa | 0 mm | - | - | - |
| 1777588292 | 8.89° C | 43% | 989 hPa | 0 mm | - | - | - |
| 1777587380 | 8.89° C | 43% | 989 hPa | 0 mm | - | - | - |
| 1777586505 | 8.89° C | 43% | 989 hPa | 0 mm | - | - | - |
| 1777585579 | 8.89° C | 45% | 988 hPa | 0 mm | - | - | - |
| 1777584695 | 9.44° C | 47% | 988.9 hPa | 0 mm | - | - | - |
| 1777583780 | 8.89° C | 47% | 988.9 hPa | 0 mm | - | - | - |
| 1777582899 | 9.44° C | 47% | 988.9 hPa | 0 mm | - | - | - |
| 1777581980 | 9.44° C | 46% | 988.6 hPa | 0 mm | - | - | - |
| 1777581098 | 9.44° C | 46% | 988.2 hPa | 0 mm | - | - | - |
| 1777580181 | 9.44° C | 46% | 988.2 hPa | 0 mm | - | - | - |
| 1777579306 | 9.44° C | 46% | 988.2 hPa | 0 mm | - | - | - |
| 1777578382 | 9.44° C | 46% | 988.3 hPa | 0 mm | - | - | - |
| 1777577493 | 9.44° C | 46% | 988.3 hPa | 0 mm | - | - | - |
| 1777576582 | 9.44° C | 46% | 988.3 hPa | 0 mm | - | - | - |
| 1777575705 | 9.44° C | 46% | 988.3 hPa | 0 mm | - | - | - |
* Rain latest hour (hover to see other rain measurements)
** Current wind speed in m/s (hover to see current wind gust speed)